Riverside March, CA

2:59 PM PDT on September 21, 2017 (GMT -0700)
March Air Reserve Base

Weather History for KRIV - August, 2014

Change the Weather History Date:

Monday, August 11, 2014

  Actual Average Record
Temperature  
Mean Temperature 80 °F -  
Max Temperature 95 °F 92 °F 105 °F (2012)
Min Temperature 67 °F 62 °F 50 °F (2010)
Cooling Degree Days 16    
Growing Degree Days 30 (Base 50)    
Moisture  
Dew Point 57 °F    
Average Humidity 50    
Maximum Humidity 77    
Minimum Humidity 24    
Precipitation  
Precipitation 0.00 in - - ()
Sea Level Pressure  
Sea Level Pressure 29.93 in    
Wind  
Wind Speed 5 mph (WNW)    
Max Wind Speed 16 mph    
Max Gust Speed 21 mph    
Visibility 10 miles    
Events      
Averages and records for this station are not official NWS values.
T = Trace of Precipitation, MM = Missing Value Source: NWS Daily Summary

Daily Weather History Graph

Daily Weather History Graph

Search for Another Location

Airport or City:

Trip Planner

Search our weather history database for the weather conditions in past years. The results will help you decide how hot, cold, wet, or windy it might be!

Date:

Astronomy

Aug. 11, 2014 Rise Set
Actual Time 6:07 AM PDT 7:39 PM PDT
Civil Twilight 5:41 AM PDT 8:06 PM PDT
Nautical Twilight 5:09 AM PDT 8:38 PM PDT
Astronomical Twilight 4:35 AM PDT 9:11 PM PDT
Moon 8:18 PM PDT (8/11) 7:13 AM PDT (8/11)
Length of Visible Light 14h 25m
Length of Day
13h 31m
Full, 98% of the Moon is Illuminated
Aug 11
Full
Aug 17
Last Quarter
Aug 25
New
Sep 2
First Quarter
Sep 8
Full

Hourly Weather History & Observations

Time (PDT) Temp. Heat Index Dew Point Humidity Pressure Visibility Wind Dir Wind Speed Gust Speed Precip Events Conditions
12:58 AM 69.8 °F - 56.8 °F 63% 29.93 in 10.0 mi WNW 2.3 mph - N/A   Scattered Clouds
1:58 AM 69.4 °F - 58.1 °F 67% 29.91 in 10.0 mi WNW 3.5 mph - N/A   Scattered Clouds
2:20 AM 69.8 °F - 57.2 °F 64% 29.96 in 10.0 mi NW 3.5 mph - N/A   Light Drizzle
2:29 AM 69.8 °F - 57.2 °F 64% 29.96 in 10.0 mi NNW 3.5 mph - N/A   Partly Cloudy
2:58 AM 69.4 °F - 58.1 °F 67% 29.91 in 10.0 mi WNW 1.2 mph - 0.00 in   Scattered Clouds
3:58 AM 68.9 °F - 56.5 °F 65% 29.91 in 10.0 mi NW 2.3 mph - N/A   Partly Cloudy
4:58 AM 68.9 °F - 58.5 °F 69% 29.92 in 10.0 mi NW 2.3 mph - N/A   Mostly Cloudy
5:58 AM 67.6 °F - 60.1 °F 77% 29.93 in 10.0 mi West 3.5 mph - N/A   Scattered Clouds
6:58 AM 67.3 °F - 59.9 °F 77% 29.94 in 10.0 mi Calm Calm - N/A   Clear
7:58 AM 71.1 °F - 59.2 °F 66% 29.95 in 10.0 mi NW 3.5 mph - N/A   Partly Cloudy
8:58 AM 77.0 °F - 59.0 °F 54% 29.96 in 10.0 mi Variable 1.2 mph - N/A   Clear
9:58 AM 79.9 °F - 58.1 °F 47% 29.95 in 10.0 mi NE 1.2 mph - N/A   Clear
10:58 AM 87.1 °F 85.3 °F 54.5 °F 33% 29.95 in 10.0 mi Variable 3.5 mph - N/A   Clear
11:58 AM 91.0 °F - 50.9 °F 25% 29.94 in 10.0 mi Variable 3.5 mph - N/A   Clear
12:58 PM 93.6 °F - 52.2 °F 24% 29.93 in 10.0 mi NW 8.1 mph - N/A   Partly Cloudy
1:58 PM 94.5 °F - 52.0 °F 24% 29.91 in 10.0 mi WNW 11.5 mph 20.7 mph N/A   Partly Cloudy
2:58 PM 92.8 °F 90.9 °F 55.4 °F 28% 29.91 in 10.0 mi WNW 10.4 mph - N/A   Mostly Cloudy
3:58 PM 93.7 °F 92.0 °F 55.6 °F 28% 29.89 in 10.0 mi WNW 12.7 mph - N/A   Scattered Clouds
4:58 PM 92.1 °F 89.5 °F 53.1 °F 26% 29.88 in 10.0 mi WNW 15.0 mph - N/A   Scattered Clouds
5:58 PM 90.3 °F - 51.1 °F 26% 29.88 in 10.0 mi NW 16.1 mph - N/A   Partly Cloudy
6:58 PM 86.2 °F 84.4 °F 53.8 °F 33% 29.89 in 10.0 mi NW 12.7 mph - N/A   Clear
7:58 PM 81.1 °F 81.3 °F 57.9 °F 45% 29.91 in 10.0 mi WNW 10.4 mph - N/A   Clear
8:58 PM 77.7 °F - 57.6 °F 50% 29.93 in 10.0 mi WNW 6.9 mph - N/A   Clear
9:58 PM 74.8 °F - 59.4 °F 58% 29.95 in 10.0 mi West 5.8 mph - N/A   Clear
10:58 PM 73.6 °F - 60.6 °F 64% 29.94 in 10.0 mi WNW 4.6 mph - N/A   Clear
11:58 PM 71.1 °F - 60.6 °F 69% 29.95 in 10.0 mi NW 1.2 mph - N/A   Clear